This is the latest recevied weather packets stored in our database for station/object JS2QVS-13. If no packets are shown the sender has not sent any weather packets the latest 10 day(s).
| Time | Temp. | Humidity | Pressure | Rain* | Wind** | Luminosity | Snow |
|---|---|---|---|---|---|---|---|
| 1777754262 | 18.33° C | 62% | 1008.2 hPa | 0 mm | - | - | - |
| 1777753662 | 18.33° C | 59% | 1008.2 hPa | 0 mm | - | - | - |
| 1777753061 | 18.33° C | 58% | 1008.2 hPa | 0 mm | - | - | - |
| 1777752461 | 18.33° C | 58% | 1008.1 hPa | 0 mm | - | - | - |
| 1777751863 | 18.33° C | 57% | 1008 hPa | 0 mm | - | - | - |
| 1777751263 | 18.33° C | 57% | 1008 hPa | 0 mm | - | - | - |
| 1777750663 | 18.33° C | 59% | 1007.8 hPa | 0 mm | - | - | - |
| 1777750063 | 18.33° C | 57% | 1007.7 hPa | 0 mm | - | - | - |
| 1777749462 | 18.33° C | 57% | 1007.7 hPa | 0 mm | - | - | - |
| 1777748862 | 18.33° C | 58% | 1007.7 hPa | 0 mm | - | - | - |
| 1777748262 | 18.89° C | 57% | 1007.9 hPa | 0 mm | - | - | - |
| 1777747662 | 18.89° C | 55% | 1007.9 hPa | 0 mm | - | - | - |
| 1777747062 | 18.89° C | 54% | 1008 hPa | 0 mm | - | - | - |
| 1777746462 | 18.89° C | 53% | 1007.9 hPa | 0 mm | - | - | - |
| 1777745862 | 18.89° C | 53% | 1007.8 hPa | 0 mm | - | - | - |
| 1777745262 | 18.89° C | 53% | 1007.7 hPa | 0 mm | - | - | - |
| 1777744661 | 18.89° C | 54% | 1007.6 hPa | 0 mm | - | - | - |
| 1777744061 | 18.89° C | 54% | 1007.7 hPa | 0 mm | - | - | - |
| 1777743461 | 18.89° C | 54% | 1007.8 hPa | 0 mm | - | - | - |
| 1777742863 | 18.89° C | 56% | 1007.9 hPa | 0 mm | - | - | - |
| 1777742263 | 18.89° C | 56% | 1008 hPa | 0 mm | - | - | - |
| 1777741663 | 18.33° C | 56% | 1008 hPa | 0 mm | - | - | - |
| 1777741063 | 18.33° C | 59% | 1008.1 hPa | 0 mm | - | - | - |
| 1777740462 | 18.33° C | 60% | 1008 hPa | 0 mm | - | - | - |
| 1777739862 | 18.33° C | 60% | 1008.1 hPa | 0 mm | - | - | - |
* Rain latest hour (hover to see other rain measurements)
** Current wind speed in m/s (hover to see current wind gust speed)